When you browse on this site, cookies collect data to enhance your experience and personalize the content and advertising you see.
Visit our Privacy Policy to learn more. By continuing to use the site, you agree to this use of cookies and data.
  • In Hungary
  • List of Countries
  • For 7 days
  • Water Temperature
  • Satellite Maps
  • Weather Map
  • News
  • Weather Widgets
  • user-avatar
    Login

    Hourly Weather Moniatycze

    Today, 16 January, Wednesday

    Time Temperature Precipitation Wind Pressure Humidity
    00:00 -4°C° 0.5 mm 4 mps 731 mmHg 92%
    01:00 -3°C° 0.5 mm 4 mps 730 mmHg 93%
    02:00 -4°C° 0 mm 4 mps 729 mmHg 95%
    03:00 -3°C° 0.7 mm 6 mps 729 mmHg 93%
    04:00 -2°C° 0.7 mm 8 mps 728 mmHg 92%
    05:00 -2°C° 0.7 mm 11 mps 728 mmHg 91%
    06:00 -2°C° 0.1 mm 10 mps 729 mmHg 89%
    07:00 -1°C° 0.1 mm 9 mps 730 mmHg 87%
    08:00 -2°C° 0 mm 8 mps 732 mmHg 85%
    09:00 -2°C° 0 mm 7 mps 733 mmHg 86%
    10:00 -3°C° 0 mm 6 mps 734 mmHg 86%
    11:00 -2°C° 0 mm 4 mps 735 mmHg 86%
    12:00 -2°C° 0 mm 4 mps 735 mmHg 87%
    13:00 -1°C° 0 mm 3 mps 736 mmHg 88%
    14:00 +1°C° 0 mm 2 mps 736 mmHg 90%
    15:00 -1°C° 0 mm 2 mps 736 mmHg 92%
    16:00 -1°C° 0 mm 2 mps 736 mmHg 93%
    17:00 -1°C° 0 mm 2 mps 737 mmHg 94%
    18:00 +1°C° 0.1 mm 2 mps 737 mmHg 96%
    19:00 0°C° 0.1 mm 3 mps 737 mmHg 97%
    20:00 -1°C° 0.1 mm 4 mps 737 mmHg 98%
    21:00 -1°C° 0 mm 4 mps 737 mmHg 97%
    22:00 -1°C° 0 mm 4 mps 737 mmHg 97%
    23:00 0°C° 0 mm 4 mps 737 mmHg 97%

    Tomorrow, 17 January, Thursday

    Time Temperature Precipitation Wind Pressure Humidity
    00:00 -1°C° 0 mm 4 mps 737 mmHg 95%
    01:00 -1°C° 0 mm 4 mps 736 mmHg 94%
    02:00 -1°C° 0 mm 5 mps 736 mmHg 93%
    03:00 -1°C° 0 mm 5 mps 736 mmHg 92%
    04:00 -2°C° 0 mm 5 mps 736 mmHg 91%
    05:00 -2°C° 0 mm 4 mps 735 mmHg 90%
    06:00 -2°C° 0 mm 5 mps 735 mmHg 88%
    07:00 -2°C° 0 mm 6 mps 735 mmHg 86%
    08:00 -2°C° 0 mm 6 mps 734 mmHg 84%
    09:00 -2°C° 0 mm 6 mps 734 mmHg 83%
    10:00 -1°C° 0 mm 7 mps 734 mmHg 82%
    11:00 -1°C° 0 mm 7 mps 734 mmHg 82%
    12:00 -1°C° 0 mm 7 mps 734 mmHg 83%
    13:00 -1°C° 0 mm 7 mps 734 mmHg 83%
    14:00 -1°C° 0 mm 6 mps 734 mmHg 84%
    15:00 -1°C° 0 mm 6 mps 734 mmHg 84%
    16:00 -1°C° 0 mm 6 mps 734 mmHg 83%
    17:00 -1°C° 0 mm 6 mps 734 mmHg 83%
    18:00 -1°C° 0 mm 6 mps 734 mmHg 84%
    19:00 -2°C° 0 mm 6 mps 734 mmHg 85%
    20:00 -2°C° 0 mm 6 mps 735 mmHg 85%
    21:00 -2°C° 0 mm 6 mps 735 mmHg 86%
    22:00 -2°C° 0 mm 6 mps 735 mmHg 87%
    23:00 -1°C° 0 mm 5 mps 735 mmHg 87%

    Day after tomorrow, 18 January, Friday

    Time Temperature Precipitation Wind Pressure Humidity
    00:00 0°C° 0.1 mm 5 mps 735 mmHg 88%
    01:00 -1°C° 0.1 mm 6 mps 735 mmHg 89%
    02:00 -1°C° 0.1 mm 6 mps 735 mmHg 90%
    03:00 0°C° 0 mm 5 mps 734 mmHg 89%
    04:00 0°C° 0 mm 5 mps 734 mmHg 88%
    05:00 0°C° 0 mm 5 mps 734 mmHg 87%
    06:00 0°C° 0 mm 5 mps 734 mmHg 88%
    07:00 0°C° 0 mm 5 mps 735 mmHg 89%
    08:00 -1°C° 0 mm 6 mps 735 mmHg 89%
    09:00 -2°C° 0.1 mm 6 mps 736 mmHg 87%
    10:00 -1°C° 0.1 mm 5 mps 736 mmHg 85%
    11:00 -1°C° 0.1 mm 5 mps 737 mmHg 83%
    12:00 -2°C° 0 mm 6 mps 737 mmHg 81%
    13:00 -2°C° 0 mm 6 mps 737 mmHg 79%
    14:00 -2°C° 0 mm 7 mps 738 mmHg 77%
    15:00 -3°C° 0 mm 7 mps 738 mmHg 79%
    16:00 -3°C° 0 mm 7 mps 739 mmHg 81%
    17:00 -4°C° 0 mm 8 mps 740 mmHg 82%
    18:00 -4°C° 0 mm 6 mps 741 mmHg 82%
    19:00 -5°C° 0 mm 5 mps 742 mmHg 82%
    20:00 -4°C° 0 mm 4 mps 743 mmHg 82%
    21:00 -4°C° 0 mm 4 mps 743 mmHg 83%
    22:00 -5°C° 0 mm 4 mps 744 mmHg 84%
    23:00 -5°C° 0 mm 4 mps 745 mmHg 85%

    19 January, Saturday

    Time Temperature Precipitation Wind Pressure Humidity
    00:00 -5°C° 0 mm 3 mps 745 mmHg 86%
    01:00 -5°C° 0 mm 3 mps 746 mmHg 86%
    02:00 -5°C° 0 mm 3 mps 746 mmHg 87%
    03:00 -5°C° 0 mm 3 mps 746 mmHg 88%
    04:00 -5°C° 0 mm 3 mps 746 mmHg 89%
    05:00 -5°C° 0 mm 3 mps 746 mmHg 90%
    06:00 -6°C° 0 mm 3 mps 747 mmHg 90%
    07:00 -5°C° 0 mm 2 mps 747 mmHg 91%
    08:00 -5°C° 0 mm 2 mps 747 mmHg 91%
    09:00 -5°C° 0 mm 3 mps 747 mmHg 90%
    10:00 -5°C° 0 mm 3 mps 747 mmHg 88%
    11:00 -4°C° 0 mm 3 mps 747 mmHg 86%
    12:00 -4°C° 0 mm 3 mps 747 mmHg 85%
    13:00 -2°C° 0 mm 3 mps 747 mmHg 83%
    14:00 -2°C° 0 mm 3 mps 747 mmHg 82%
    15:00 -3°C° 0 mm 2 mps 747 mmHg 84%
    16:00 -3°C° 0 mm 2 mps 747 mmHg 85%
    17:00 -4°C° 0 mm 2 mps 746 mmHg 87%
    18:00 -4°C° 0 mm 2 mps 746 mmHg 87%
    19:00 -4°C° 0 mm 2 mps 746 mmHg 87%
    20:00 -4°C° 0 mm 2 mps 746 mmHg 87%
    21:00 -5°C° 0 mm 2 mps 746 mmHg 87%
    22:00 -5°C° 0 mm 2 mps 746 mmHg 86%
    23:00 -5°C° 0 mm 2 mps 746 mmHg 85%

    20 January, Sunday

    Time Temperature Precipitation Wind Pressure Humidity
    00:00 -5°C° 0 mm 2 mps 746 mmHg 85%
    01:00 -6°C° 0 mm 2 mps 745 mmHg 85%
    02:00 -6°C° 0 mm 2 mps 745 mmHg 85%
    03:00 -6°C° 0 mm 2 mps 745 mmHg 86%
    04:00 -6°C° 0 mm 2 mps 744 mmHg 87%
    05:00 -6°C° 0 mm 2 mps 744 mmHg 89%
    06:00 -6°C° 0 mm 2 mps 744 mmHg 90%
    07:00 -6°C° 0 mm 2 mps 743 mmHg 91%
    08:00 -6°C° 0 mm 2 mps 743 mmHg 92%
    09:00 -5°C° 0 mm 2 mps 743 mmHg 91%
    10:00 -5°C° 0 mm 2 mps 743 mmHg 90%
    11:00 -5°C° 0 mm 2 mps 743 mmHg 90%
    12:00 -5°C° 0 mm 2 mps 743 mmHg 89%
    13:00 -4°C° 0 mm 2 mps 743 mmHg 88%
    14:00 -2°C° 0 mm 1 mps 743 mmHg 86%
    15:00 -2°C° 0 mm 1 mps 743 mmHg 88%
    16:00 -3°C° 0 mm 1 mps 743 mmHg 89%
    17:00 -3°C° 0 mm 1 mps 743 mmHg 91%
    18:00 -3°C° 0 mm 1 mps 743 mmHg 91%
    19:00 -4°C° 0 mm 1 mps 743 mmHg 92%
    20:00 -4°C° 0 mm 1 mps 743 mmHg 93%
    21:00 -4°C° 0 mm 1 mps 743 mmHg 92%
    22:00 -4°C° 0 mm 1 mps 744 mmHg 92%
    23:00 -4°C° 0 mm 1 mps 744 mmHg 91%

    21 January, Monday

    Time Temperature Precipitation Wind Pressure Humidity
    00:00 -6°C° 0 mm 2 mps 744 mmHg 90%
    01:00 -6°C° 0 mm 2 mps 744 mmHg 89%
    02:00 -6°C° 0 mm 2 mps 744 mmHg 88%
    03:00 -6°C° 0 mm 2 mps 744 mmHg 88%
    04:00 -7°C° 0 mm 3 mps 744 mmHg 88%
    05:00 -7°C° 0 mm 3 mps 744 mmHg 88%
    06:00 -8°C° 0 mm 4 mps 744 mmHg 88%
    07:00 -8°C° 0 mm 4 mps 744 mmHg 88%
    08:00 -8°C° 0 mm 4 mps 744 mmHg 89%
    09:00 -7°C° 0 mm 5 mps 745 mmHg 86%
    10:00 -7°C° 0 mm 5 mps 745 mmHg 84%
    11:00 -6°C° 0 mm 5 mps 746 mmHg 82%
    12:00 -6°C° 0 mm 5 mps 746 mmHg 81%
    13:00 -6°C° 0 mm 6 mps 746 mmHg 80%
    14:00 -6°C° 0 mm 6 mps 747 mmHg 78%
    15:00 -6°C° 0 mm 5 mps 747 mmHg 79%
    16:00 -7°C° 0 mm 4 mps 748 mmHg 80%
    17:00 -6°C° 0 mm 3 mps 748 mmHg 80%
    18:00 -7°C° 0 mm 3 mps 749 mmHg 81%
    19:00 -7°C° 0 mm 3 mps 749 mmHg 82%
    20:00 -7°C° 0 mm 3 mps 749 mmHg 82%
    21:00 -7°C° 0 mm 2 mps 750 mmHg 83%
    22:00 -7°C° 0 mm 2 mps 750 mmHg 84%
    23:00 -7°C° 0 mm 2 mps 750 mmHg 85%
    Show more